,

(GMT )
Creston

Weather History for CWJR - July, 2013

Change the Weather History Date:

Wednesday, July 10, 2013

  Actual Average Record
Temperature  
Mean Temperature 75 °F -  
Max Temperature 90 °F - - ()
Min Temperature 60 °F - - ()
Cooling Degree Days 10    
Growing Degree Days 25 (Base 50)    
Moisture  
Dew Point 49 °F    
Average Humidity 41    
Maximum Humidity 64    
Minimum Humidity 13    
Precipitation  
Precipitation 0.00 in - - ()
Sea Level Pressure  
Sea Level Pressure 29.86 in    
Wind  
Wind Speed 5 mph ()    
Max Wind Speed 12 mph    
Max Gust Speed 21 mph    
T = Trace of Precipitation, MM = Missing Value Source: Averaged Metar Reports

Daily Weather History Graph

Daily Weather History Graph

Search for Another Location

Airport or City:

Trip Planner

Search our weather history database for the weather conditions in past years. The results will help you decide how hot, cold, wet, or windy it might be!

Date:

Astronomy

Jul. 10, 2013 Rise Set
Actual Time 4:52 AM MST 8:49 PM MST
Civil Twilight 4:11 AM MST 9:30 PM MST
Nautical Twilight 3:13 AM MST 10:28 PM MST
Astronomical Twilight 1:37 AM MST 12:02 AM MST
Moon 7:35 AM MST (7/10) 9:41 PM MST (7/10)
Length of Visible Light 17h 19m
Length of Day
15h 56m
Waxing Crescent, 6% of the Moon is Illuminated
Jul 10
Waxing Crescent
Jul 15
First Quarter
Jul 22
Full
Jul 29
Last Quarter
Aug 6
New

Hourly Weather History & Observations

Time (MST) Temp. Heat Index Dew Point Humidity Pressure Visibility Wind Dir Wind Speed Gust Speed Precip Events Conditions
12:00 AM 68.4 °F - 49.5 °F 51% 30.01 in - ENE 4.6 mph - N/A   Unknown
1:00 AM 67.1 °F - 48.9 °F 52% 30.00 in - ENE 3.5 mph - N/A   Unknown
2:00 AM 64.8 °F - 49.5 °F 58% 30.00 in - NE 2.3 mph - N/A   Unknown
3:00 AM 63.7 °F - 48.7 °F 58% 30.00 in - NE 5.8 mph - N/A   Unknown
4:00 AM 62.8 °F - 48.4 °F 59% 30.00 in - ENE 6.9 mph - N/A   Unknown
5:00 AM 61 °F - 48 °F 52% 30.01 in - East 9.2 mph - -  
5:00 AM 61.2 °F - 48.0 °F 62% 30.01 in - East 9.2 mph - N/A   Unknown
6:00 AM 61.5 °F - 49.3 °F 64% 30.01 in - ENE 3.5 mph - N/A   Unknown
7:00 AM 63.9 °F - 50.7 °F 62% 30.01 in - ENE 4.6 mph - N/A   Unknown
8:00 AM 65.7 °F - 50.4 °F 58% 30.01 in - South 2.3 mph - N/A   Unknown
9:00 AM 70.0 °F - 52.3 °F 53% 29.99 in - South 1.2 mph - N/A   Unknown
10:00 AM 73.9 °F - 57.2 °F 56% 29.96 in - WSW 2.3 mph - N/A   Unknown
11:00 AM 76 °F - 55 °F 38% 29.94 in - SSW 2.3 mph - -  
11:00 AM 75.6 °F - 55.0 °F 49% 29.94 in - SSW 2.3 mph - N/A   Unknown
12:00 PM 77.9 °F - 57.4 °F 49% 29.90 in - SSW 3.5 mph - N/A   Unknown
1:00 PM 83.7 °F 83.1 °F 57.4 °F 41% 29.86 in - South 5.8 mph - N/A   Unknown
2:00 PM 86.7 °F - 48.0 °F 26% 29.82 in - SSE 11.5 mph 17.3 mph N/A   Unknown
3:00 PM 88.2 °F - 49.8 °F 27% 29.80 in - South 10.4 mph - N/A   Unknown
4:00 PM 90.1 °F - 45.1 °F 21% 29.77 in - South 8.1 mph - N/A   Unknown
5:00 PM 90 °F - 46 °F 13% 29.74 in - SSW 10.4 mph - -  
5:00 PM 89.8 °F - 46.2 °F 22% 29.74 in - SSW 10.4 mph - N/A   Unknown
6:00 PM 87.8 °F - 45.5 °F 23% 29.73 in - SSW 11.5 mph 20.7 mph N/A   Unknown
7:00 PM 87.1 °F - 47.5 °F 25% 29.70 in - SSW 4.6 mph - N/A   Unknown
8:00 PM 73 °F - 45 °F 25% 29.70 in - ESE 3.5 mph - -  
8:00 PM 83.3 °F - 47.5 °F 29% 29.70 in - South 4.6 mph - N/A   Unknown
9:00 PM 79.0 °F - 46.9 °F 32% 29.70 in - SSE 4.6 mph - N/A   Unknown
10:00 PM 73 °F - 45 °F 25% 29.70 in - ESE 3.5 mph - -  
10:00 PM 74.7 °F - 46.2 °F 36% 29.71 in - ESE 3.5 mph - N/A   Unknown
11:00 PM 73 °F - 45 °F 25% 29.70 in - ESE 3.5 mph - -  
11:00 PM 73.0 °F - 44.8 °F 36% 29.70 in - ESE 3.5 mph - N/A   Unknown